Flag for U.S.A. Weather past 2 weeks in Sacramento, California, U.S.A.

Now
69 °F

Clear.


Feels Like: 69 °F
Forecast: 56 / 82 °F
Wind: 15 mph from Northwest

Location: Sacramento Executive Airport

Current Time: Oct 1, 2014 at 12:50:04 AM

Latest Report: Sep 30, 2014 at 11:53 PM


Visibility: 10 mi

Pressure: 29.82 "Hg

Humidity: 39%

Dew point: 43 °F

Location of SacramentoLocation

Historic Weather in Sacramento — Graph

°F

Sacramento temperature yesterday

Maximum temperature yesterday: 83 °F (at 3:53 PM)
Minimum temperature yesterday: 60 °F (at 5:53 AM)
Average temperature yesterday: 69 °F

Past Weeks' High & Low Weather Summary

 TemperatureHumidityPressure
High91 °F (Sep 16, 4:53 PM)96% (Sep 29, 6:53 AM)30.02 "Hg (Sep 29, 6:53 AM)
Low53 °F (Sep 29, 6:53 AM)17% (Sep 16, 5:53 PM)29.69 "Hg (Sep 17, 5:53 PM)
Average70 °F65%29.88 "Hg
* Reported Sep 15 11:53 PM — Sep 30 11:53 PM, Sacramento, Weather by CustomWeather, © 2014

Note: Actual official high and low records may vary slightly from our data, if they occured in-between our weather recording intervals... More about our weather records

Advertising

Sacramento weather history for previous 24 hours

 ConditionsComfort  
Time TempWeatherWind HumidityBarometerVisibility
11:53 PM
Sep 30
69 °FClear.15 mph39%29.82 "Hg10 mi
10:53 PM69 °FClear.7 mph57%29.82 "Hg10 mi
9:53 PM66 °FClear.No wind68%29.81 "Hg10 mi
8:53 PM68 °FClear.No wind63%29.82 "Hg10 mi
7:53 PM70 °FClear.No wind61%29.81 "Hg10 mi
6:53 PM78 °FSunny.6 mph43%29.81 "Hg10 mi
5:53 PM82 °FSunny.9 mph40%29.81 "Hg10 mi
4:53 PM82 °FSunny.3 mph38%29.82 "Hg10 mi
3:53 PM83 °FSunny.7 mph38%29.84 "Hg10 mi
2:53 PM81 °FSunny.6 mph41%29.85 "Hg10 mi
1:53 PM79 °FSunny.5 mph42%29.88 "Hg10 mi
12:53 PM76 °FSunny.No wind52%29.91 "Hg10 mi
11:53 AM71 °FSunny.3 mph59%29.93 "Hg10 mi
10:53 AM67 °FSunny.5 mph68%29.93 "Hg10 mi
9:53 AM65 °FSunny.3 mph73%29.95 "Hg10 mi
8:53 AM62 °FSunny.No wind78%29.94 "Hg10 mi
7:53 AM60 °FClear.3 mph83%29.93 "Hg10 mi
6:53 AM60 °FClear.5 mph80%29.92 "Hg10 mi
5:53 AM60 °FClear.5 mph83%29.92 "Hg10 mi
4:53 AM61 °FClear.5 mph81%29.91 "Hg10 mi
3:53 AM61 °FClear.3 mph83%29.91 "Hg10 mi
2:53 AM62 °FClear.5 mph80%29.92 "Hg10 mi
1:53 AM62 °FClear.3 mph83%29.93 "Hg10 mi
12:53 AM62 °FClear.5 mph83%29.93 "Hg10 mi
Weather by CustomWeather, © 2014

See weather overviewHow to use our weather pages